Regional Weather Roundup
Issued by NWS

Home | Current Version | Previous Version | Graphics & Text | Print | Product List | Glossary On
Versions: 1 2 3 4 5 6 7 8 9 10 11 12 13 14 15 16 17 18 19 20 21 22 23 24 25 26 27 28 29 30 31 32 33 34 35 36 37 38 39 40 41 42 43 44 45 46 47 48 49 50
000
ASUS45 KSLC 062010
RWRUT

UTAH REGIONAL WEATHER ROUNDUP
NATIONAL WEATHER SERVICE SALT LAKE CITY UT
200 PM MDT MON JUL 06 2015

UTZ001>011-023>025-062100-

NORTHERN UTAH

CITY           SKY/WX    TMP DP  RH WIND       PRES   REMARKS
BRIGHAM CITY   MOSUNNY   86  45  23 SW7       30.08F
HILL AFB       MOSUNNY   83  54  35 VRB3      30.12F
LOGAN          SUNNY     85  49  28 S6        30.08F
OGDEN          MOSUNNY   86  50  28 W10G20    30.09F
PROVO AIRPORT  PTSUNNY   82  48  30 CALM      30.10F
SALT LAKE CITY PTSUNNY   85  58  39 NW9       30.07F
VERNAL         MOSUNNY   84  49  29 VRB3      30.13F
WENDOVER       CLOUDY    84  45  24 N6G18     30.10F
HEBER CITY     PTSUNNY   81  45  28 SW7       30.16F
WEST JORDAN    SUNNY     82  54  36 NW10      30.11F

$$

UTZ012>022-026-027-062100-

SOUTHERN/CENTRAL UTAH

CITY           SKY/WX    TMP DP  RH WIND       PRES   REMARKS
BLANDING       CLOUDY    74  56  54 W10       30.27F
BRYCE CANYON   CLOUDY    65  51  60 NW7       30.37F
CEDAR CITY     CLOUDY    77  45  32 NW5       30.21F
DELTA          MOSUNNY   86  44  23 W13       30.12F
HANKSVILLE     CLOUDY    82  55  39 S5        30.12F
MILFORD        PTSUNNY   82  44  26 SW6       30.15F
MOAB/CYNLANDS  SUNNY     87  53  31 VRB5      30.05F
PRICE          MOSUNNY   88  41  19 CALM      30.15F
ST GEORGE      MOCLDY    88  52  29 SW17      30.07S
KANAB          PTSUNNY   82  54  36 N9        30.23F

$$

REGIONAL REPORTS     COLORADO/ARIZONA

CITY           SKY/WX    TMP DP  RH WIND       PRES   REMARKS
CRAIG, CO      MOSUNNY   76  53  44 VRB5      30.23F
GRAND JUNCTION PTSUNNY   84  54  35 SW7       30.10F
RIFLE          MOSUNNY   75  53  46 E6        30.19F
MONTROSE       CLOUDY    77  54  44 N9        30.22F
CORTEZ         SUNNY     85  55  35 W17G25    30.15F
PAGE, AZ       CLOUDY    82  51  34 N7        30.13F
GRAND CANYON   CLOUDY    73  50  44 W9G17     30.31F
KINGMAN        MOSUNNY   92  54  27 SW13      30.09F HX  90
FLAGSTAFF      PTSUNNY   71  52  50 SW15      30.33F

$$

REGIONAL REPORTS    NEVADA/IDAHO/WYOMING

CITY           SKY/WX    TMP DP  RH WIND       PRES   REMARKS
LAS VEGAS, NV  MOSUNNY   96  55  25 VRB5      29.95F HX  94
ELY            PTSUNNY   78  37  22 S7        30.23F
ELKO           MOSUNNY   84  45  25 VRB3      30.16F
POCATELLO, ID  MOSUNNY   78  54  43 N9        30.15F
BURLEY         MOSUNNY   79  55  43 SW5       30.12F
EVANSTON, WY   PTSUNNY   72  52  49 CALM      30.27F
ROCK SPRINGS   SUNNY     71  50  47 VRB3      30.27F
KEMMERER       MOSUNNY   75  46  35 S12       30.29F

$$


USA.gov is the U.S. government's official web portal to all federal, state and local government web resources and services.